Torna al catalogo

MICE-1

AttivoMilitareSSO
NORAD 66684·PAYLOAD·🇬🇷 Greece

Lanciato Nov 28, 2025 da Vandenberg Space Force Base

Loading…

Prossimi Passaggi (prossime 24 ore)

TLE

AggiornatoSource: Space-Track

Epoca: Sep 14, 2026, 11:28 UTC

1 66684U 25276U   26257.47800062  .00002908  00000-0  13922-3 0  9990
2 66684  97.4198 329.6170 0006559  53.7900 306.3941 15.19727490 43971

Traccia MICE-1 in tempo reale con AllMySat

Download on the App Store